QPF
0.01 0.02 0.07 0.12 0.11 0.08 0.02 0.01 0.00 0.00 0.00 0.00 0.00 0.01 0.01 0.02 0.03 0.05 0.08 0.06 0.08 0.14 0.16 0.11 0.09 0.07 0.13 0.25 0.24 0.18 0.17 0.17 0.13 0.10 0.08 0.08 0.08 0.05 0.03 0.02 0.03 0.03 0.05 0.09 0.10 0.07 0.06 0.06 0.06
0.02 0.07 0.12 0.14 0.13 0.04 0.01 0.00 0.00 0.00 0.00 0.00 0.00 0.01 0.01 0.01 0.03 0.05 0.08 0.07 0.06 0.06 0.09 0.10 0.10 0.09 0.09 0.11 0.13 0.14 0.12 0.12 0.12 0.11 0.09 0.10 0.09 0.05 0.03 0.03 0.03 0.04 0.05 0.07 0.07 0.07 0.06 0.05 0.05
0.05 0.09 0.11 0.13 0.09 0.03 0.01 0.00 0.00 0.00 0.00 0.00 0.00 0.00 0.01 0.02 0.03 0.04 0.06 0.07 0.08 0.08 0.11 0.15 0.14 0.12 0.09 0.09 0.10 0.09 0.09 0.09 0.10 0.11 0.10 0.13 0.12 0.07 0.04 0.04 0.04 0.05 0.06 0.06 0.06 0.06 0.05 0.05 0.05
0.06 0.09 0.11 0.12 0.05 0.03 0.01 0.00 0.00 0.00 0.00 0.00 0.00 0.00 0.01 0.01 0.02 0.02 0.03 0.05 0.09 0.16 0.18 0.17 0.14 0.09 0.07 0.06 0.08 0.07 0.07 0.09 0.10 0.10 0.10 0.12 0.14 0.09 0.06 0.05 0.05 0.05 0.06 0.07 0.06 0.05 0.04 0.04 0.04
0.07 0.13 0.11 0.04 0.02 0.01 0.01 0.00 0.00 0.00 0.00 0.00 0.00 0.00 0.01 0.01 0.02 0.02 0.03 0.06 0.10 0.11 0.10 0.09 0.08 0.05 0.04 0.04 0.06 0.07 0.07 0.07 0.08 0.09 0.11 0.11 0.12 0.10 0.09 0.08 0.07 0.06 0.06 0.07 0.06 0.04 0.04 0.04 0.05
0.10 0.16 0.10 0.03 0.02 0.02 0.01 0.00 0.00 0.00 0.00 0.00 0.00 0.00 0.01 0.01 0.01 0.02 0.03 0.07 0.10 0.06 0.04 0.05 0.05 0.05 0.04 0.05 0.07 0.08 0.07 0.07 0.08 0.09 0.11 0.10 0.11 0.10 0.10 0.08 0.06 0.06 0.06 0.06 0.06 0.06 0.05 0.05 0.06
0.06 0.08 0.05 0.05 0.04 0.03 0.01 0.00 0.00 0.00 0.00 0.00 0.00 0.00 0.01 0.02 0.02 0.02 0.05 0.09 0.09 0.04 0.03 0.03 0.04 0.05 0.06 0.07 0.08 0.09 0.09 0.09 0.08 0.10 0.09 0.08 0.10 0.09 0.08 0.07 0.06 0.07 0.06 0.05 0.06 0.07 0.06 0.07 0.08
0.04 0.03 0.02 0.02 0.05 0.03 0.01 0.01 0.00 0.00 0.00 0.00 0.00 0.00 0.01 0.01 0.01 0.01 0.03 0.05 0.05 0.03 0.03 0.02 0.02 0.03 0.04 0.07 0.10 0.12 0.11 0.10 0.13 0.13 0.08 0.07 0.06 0.06 0.05 0.06 0.06 0.08 0.08 0.06 0.06 0.08 0.08 0.09 0.09
0.03 0.03 0.02 0.02 0.02 0.02 0.01 0.01 0.00 0.00 0.00 0.00 0.00 0.00 0.00 0.00 0.00 0.00 0.01 0.03 0.02 0.01 0.01 0.01 0.01 0.02 0.04 0.06 0.08 0.10 0.11 0.13 0.18 0.13 0.08 0.07 0.06 0.05 0.04 0.04 0.06 0.08 0.07 0.07 0.07 0.08 0.09 0.12 0.12
0.02 0.02 0.01 0.01 0.01 0.02 0.01 0.01 0.00 0.00 0.00 0.00 0.00 0.00 0.00 0.00 0.00 0.00 0.01 0.01 0.01 0.01 0.01 0.00 0.01 0.02 0.03 0.06 0.06 0.08 0.13 0.18 0.19 0.11 0.05 0.05 0.06 0.05 0.04 0.05 0.07 0.09 0.09 0.09 0.08 0.08 0.10 0.10 0.11
0.01 0.01 0.01 0.01 0.01 0.01 0.01 0.02 0.01 0.01 0.00 0.00 0.00 0.00 0.00 0.01 0.01 0.00 0.00 0.00 0.00 0.01 0.00 0.00 0.01 0.03 0.04 0.06 0.05 0.06 0.12 0.14 0.12 0.08 0.05 0.06 0.09 0.11 0.09 0.07 0.10 0.14 0.17 0.17 0.16 0.13 0.11 0.08 0.10
0.01 0.00 0.01 0.01 0.00 0.01 0.02 0.02 0.01 0.02 0.01 0.00 0.00 0.00 0.00 0.00 0.01 0.01 0.01 0.01 0.01 0.00 0.00 0.01 0.03 0.04 0.05 0.06 0.05 0.05 0.07 0.08 0.07 0.06 0.06 0.06 0.07 0.11 0.12 0.11 0.14 0.18 0.21 0.22 0.20 0.18 0.15 0.10 0.10
0.01 0.01 0.01 0.01 0.01 0.01 0.03 0.01 0.00 0.02 0.01 0.00 0.00 0.00 0.00 0.00 0.00 0.01 0.01 0.01 0.01 0.01 0.04 0.04 0.02 0.03 0.04 0.05 0.07 0.07 0.08 0.07 0.07 0.07 0.06 0.05 0.05 0.07 0.09 0.10 0.15 0.17 0.19 0.22 0.18 0.15 0.14 0.09 0.08
0.01 0.02 0.01 0.01 0.02 0.01 0.01 0.01 0.01 0.01 0.01 0.01 0.00 0.00 0.00 0.00 0.01 0.01 0.01 0.01 0.01 0.02 0.03 0.02 0.02 0.02 0.03 0.04 0.06 0.09 0.11 0.09 0.09 0.09 0.07 0.06 0.06 0.04 0.05 0.07 0.10 0.11 0.12 0.14 0.14 0.14 0.12 0.10 0.09
0.01 0.01 0.02 0.02 0.02 0.01 0.02 0.03 0.02 0.02 0.02 0.01 0.00 0.00 0.00 0.00 0.00 0.00 0.01 0.01 0.02 0.03 0.03 0.02 0.01 0.02 0.03 0.04 0.05 0.07 0.09 0.10 0.11 0.11 0.12 0.10 0.06 0.05 0.05 0.06 0.08 0.10 0.10 0.11 0.13 0.13 0.11 0.10 0.10
0.02 0.02 0.03 0.03 0.02 0.02 0.02 0.05 0.06 0.03 0.02 0.00 0.00 0.00 0.00 0.00 0.00 0.00 0.00 0.01 0.01 0.02 0.03 0.03 0.02 0.02 0.02 0.03 0.04 0.05 0.07 0.08 0.10 0.11 0.12 0.11 0.07 0.06 0.05 0.05 0.07 0.08 0.09 0.10 0.11 0.09 0.10 0.11 0.12
0.02 0.02 0.04 0.03 0.02 0.02 0.03 0.10 0.07 0.02 0.01 0.00 0.00 0.00 0.00 0.00 0.01 0.01 0.01 0.01 0.01 0.01 0.01 0.02 0.02 0.02 0.02 0.02 0.02 0.04 0.04 0.05 0.06 0.06 0.07 0.07 0.06 0.05 0.04 0.05 0.05 0.05 0.05 0.06 0.07 0.07 0.07 0.10 0.13
0.02 0.02 0.02 0.02 0.03 0.02 0.04 0.07 0.04 0.02 0.01 0.00 0.00 0.00 0.00 0.01 0.01 0.02 0.02 0.02 0.01 0.01 0.01 0.02 0.03 0.02 0.02 0.02 0.03 0.03 0.03 0.04 0.04 0.05 0.04 0.04 0.05 0.06 0.05 0.04 0.05 0.04 0.04 0.04 0.05 0.07 0.07 0.08 0.10
0.02 0.03 0.02 0.02 0.02 0.02 0.03 0.04 0.05 0.03 0.01 0.00 0.01 0.00 0.00 0.01 0.02 0.03 0.04 0.02 0.01 0.01 0.01 0.02 0.03 0.02 0.02 0.02 0.03 0.03 0.03 0.04 0.04 0.03 0.02 0.03 0.03 0.03 0.04 0.04 0.04 0.04 0.04 0.04 0.04 0.05 0.05 0.05 0.05
0.02 0.04 0.02 0.02 0.03 0.04 0.03 0.03 0.04 0.05 0.02 0.01 0.01 0.01 0.01 0.01 0.02 0.02 0.02 0.02 0.01 0.01 0.01 0.02 0.02 0.01 0.01 0.01 0.01 0.01 0.01 0.01 0.02 0.02 0.03 0.03 0.03 0.02 0.03 0.03 0.04 0.04 0.04 0.05 0.05 0.04 0.04 0.04 0.04
0.01 0.02 0.03 0.03 0.05 0.05 0.03 0.03 0.04 0.04 0.03 0.02 0.01 0.01 0.01 0.01 0.01 0.01 0.01 0.01 0.01 0.01 0.01 0.02 0.02 0.01 0.01 0.01 0.01 0.01 0.01 0.02 0.02 0.02 0.02 0.02 0.03 0.02 0.03 0.04 0.05 0.04 0.05 0.05 0.04 0.04 0.03 0.04 0.04
0.00 0.01 0.01 0.03 0.04 0.05 0.03 0.05 0.03 0.04 0.06 0.03 0.02 0.02 0.03 0.03 0.02 0.01 0.01 0.01 0.00 0.00 0.01 0.01 0.01 0.01 0.01 0.01 0.01 0.02 0.01 0.01 0.01 0.01 0.01 0.01 0.02 0.02 0.02 0.02 0.03 0.03 0.04 0.06 0.05 0.05 0.03 0.04 0.04
0.00 0.00 0.01 0.03 0.03 0.03 0.05 0.04 0.03 0.05 0.05 0.05 0.04 0.02 0.02 0.03 0.02 0.02 0.01 0.01 0.01 0.00 0.01 0.01 0.01 0.01 0.01 0.01 0.02 0.01 0.01 0.01 0.01 0.01 0.01 0.01 0.02 0.02 0.01 0.02 0.03 0.03 0.04 0.08 0.08 0.07 0.05 0.03 0.03
0.01 0.00 0.01 0.02 0.03 0.02 0.03 0.04 0.04 0.04 0.04 0.04 0.04 0.03 0.02 0.02 0.02 0.02 0.01 0.02 0.02 0.00 0.01 0.01 0.01 0.01 0.01 0.02 0.01 0.01 0.02 0.01 0.01 0.01 0.01 0.01 0.01 0.01 0.01 0.01 0.02 0.03 0.05 0.06 0.09 0.10 0.09 0.06 0.04
0.01 0.01 0.01 0.02 0.02 0.02 0.02 0.04 0.04 0.05 0.07 0.07 0.05 0.03 0.02 0.01 0.02 0.02 0.02 0.02 0.02 0.01 0.01 0.01 0.01 0.01 0.01 0.02 0.01 0.01 0.01 0.01 0.01 0.01 0.01 0.01 0.01 0.01 0.01 0.01 0.02 0.02 0.02 0.04 0.07 0.09 0.09 0.08 0.07
0.00 0.00 0.01 0.03 0.03 0.03 0.04 0.05 0.08 0.06 0.06 0.05 0.04 0.04 0.03 0.03 0.02 0.02 0.02 0.02 0.01 0.01 0.02 0.02 0.01 0.01 0.01 0.01 0.01 0.01 0.01 0.01 0.01 0.01 0.01 0.01 0.01 0.01 0.01 0.02 0.03 0.04 0.03 0.04 0.05 0.06 0.06 0.06 0.06
0.00 0.00 0.00 0.01 0.01 0.03 0.05 0.06 0.09 0.06 0.03 0.03 0.03 0.03 0.03 0.02 0.02 0.02 0.03 0.03 0.04 0.04 0.03 0.03 0.03 0.03 0.02 0.01 0.01 0.01 0.01 0.01 0.01 0.01 0.01 0.01 0.01 0.01 0.02 0.02 0.03 0.06 0.06 0.03 0.03 0.03 0.05 0.05 0.03
0.00 0.00 0.00 0.01 0.02 0.03 0.06 0.06 0.06 0.10 0.03 0.03 0.03 0.03 0.04 0.03 0.04 0.04 0.05 0.07 0.06 0.05 0.06 0.04 0.03 0.03 0.02 0.02 0.02 0.02 0.01 0.01 0.01 0.01 0.01 0.01 0.02 0.02 0.03 0.02 0.02 0.03 0.05 0.05 0.03 0.03 0.03 0.04 0.02
0.00 0.00 0.00 0.01 0.03 0.04 0.07 0.05 0.02 0.02 0.01 0.03 0.03 0.04 0.07 0.08 0.06 0.05 0.07 0.07 0.06 0.04 0.05 0.05 0.04 0.03 0.02 0.02 0.03 0.02 0.02 0.02 0.01 0.01 0.02 0.02 0.02 0.02 0.03 0.02 0.02 0.02 0.02 0.03 0.03 0.03 0.03 0.03 0.02
0.00 0.00 0.00 0.00 0.02 0.04 0.07 0.04 0.02 0.01 0.01 0.03 0.05 0.06 0.07 0.07 0.06 0.06 0.07 0.05 0.04 0.05 0.05 0.04 0.04 0.02 0.02 0.02 0.02 0.02 0.02 0.02 0.02 0.02 0.02 0.01 0.01 0.02 0.02 0.02 0.02 0.02 0.02 0.01 0.02 0.02 0.03 0.04 0.03
MSLP
1005.91 1007.03 1008.42 1009.88 1011.20 1012.22 1012.83 1013.04 1012.94 1012.67 1012.43 1012.36 1012.54 1012.97 1013.55 1014.14 1014.59 1014.78 1014.64 1014.22 1013.59 1012.91 1012.30 1011.88 1011.70 1011.74 1011.92 1012.14 1012.30 1012.34 1012.24 1012.02 1011.75 1011.51 1011.36 1011.32 1011.41 1011.57 1011.78 1011.99 1012.16 1012.30 1012.43 1012.57 1012.75 1012.99 1013.29 1013.61 1013.92
1006.59 1007.91 1009.42 1010.89 1012.13 1012.99 1013.40 1013.38 1013.06 1012.60 1012.20 1012.01 1012.10 1012.46 1013.00 1013.58 1014.04 1014.27 1014.21 1013.89 1013.39 1012.84 1012.35 1012.02 1011.90 1011.97 1012.15 1012.36 1012.52 1012.58 1012.53 1012.39 1012.23 1012.11 1012.06 1012.10 1012.22 1012.39 1012.56 1012.71 1012.82 1012.90 1012.98 1013.08 1013.24 1013.46 1013.72 1014.00 1014.26
1007.36 1008.85 1010.40 1011.82 1012.92 1013.59 1013.78 1013.56 1013.05 1012.44 1011.93 1011.65 1011.68 1011.98 1012.47 1013.02 1013.49 1013.74 1013.76 1013.54 1013.17 1012.76 1012.40 1012.18 1012.13 1012.21 1012.39 1012.58 1012.72 1012.79 1012.77 1012.70 1012.63 1012.60 1012.64 1012.74 1012.90 1013.06 1013.21 1013.30 1013.36 1013.38 1013.42 1013.50 1013.63 1013.82 1014.06 1014.30 1014.52
1008.13 1009.70 1011.23 1012.54 1013.47 1013.93 1013.93 1013.54 1012.91 1012.23 1011.68 1011.37 1011.37 1011.64 1012.10 1012.60 1013.04 1013.30 1013.36 1013.23 1012.99 1012.71 1012.49 1012.37 1012.38 1012.50 1012.66 1012.82 1012.94 1012.98 1012.98 1012.95 1012.94 1012.98 1013.09 1013.24 1013.41 1013.57 1013.68 1013.74 1013.75 1013.74 1013.75 1013.81 1013.93 1014.11 1014.32 1014.54 1014.71
1008.80 1010.37 1011.81 1012.96 1013.70 1013.97 1013.81 1013.33 1012.66 1012.00 1011.50 1011.24 1011.27 1011.53 1011.95 1012.40 1012.79 1013.02 1013.10 1013.03 1012.88 1012.72 1012.62 1012.60 1012.68 1012.82 1012.98 1013.10 1013.17 1013.19 1013.17 1013.16 1013.18 1013.26 1013.41 1013.58 1013.77 1013.92 1014.01 1014.04 1014.02 1013.98 1013.98 1014.03 1014.14 1014.32 1014.52 1014.71 1014.86
1009.30 1010.79 1012.09 1013.04 1013.59 1013.71 1013.46 1012.97 1012.37 1011.82 1011.44 1011.30 1011.40 1011.68 1012.07 1012.46 1012.77 1012.95 1013.00 1012.96 1012.87 1012.80 1012.80 1012.87 1013.01 1013.17 1013.31 1013.40 1013.43 1013.41 1013.37 1013.35 1013.38 1013.48 1013.64 1013.83 1014.01 1014.15 1014.22 1014.23 1014.19 1014.15 1014.14 1014.19 1014.31 1014.48 1014.66 1014.84 1014.96
1009.60 1010.95 1012.05 1012.81 1013.19 1013.20 1012.93 1012.50 1012.05 1011.68 1011.50 1011.52 1011.73 1012.06 1012.43 1012.75 1012.98 1013.08 1013.07 1013.02 1012.96 1012.95 1013.02 1013.16 1013.34 1013.52 1013.65 1013.72 1013.71 1013.65 1013.59 1013.55 1013.58 1013.68 1013.85 1014.03 1014.21 1014.33 1014.39 1014.38 1014.33 1014.29 1014.28 1014.33 1014.44 1014.60 1014.77 1014.92 1015.02
1009.71 1010.88 1011.78 1012.34 1012.58 1012.54 1012.30 1012.00 1011.73 1011.60 1011.64 1011.85 1012.18 1012.56 1012.92 1013.18 1013.31 1013.33 1013.26 1013.18 1013.13 1013.15 1013.26 1013.44 1013.65 1013.84 1013.97 1014.01 1013.98 1013.90 1013.82 1013.77 1013.80 1013.90 1014.06 1014.24 1014.40 1014.50 1014.55 1014.53 1014.47 1014.42 1014.41 1014.46 1014.56 1014.70 1014.85 1014.97 1015.04
1009.66 1010.64 1011.35 1011.75 1011.88 1011.82 1011.65 1011.50 1011.44 1011.53 1011.79 1012.18 1012.63 1013.06 1013.40 1013.61 1013.67 1013.62 1013.50 1013.38 1013.32 1013.36 1013.49 1013.69 1013.92 1014.11 1014.23 1014.26 1014.22 1014.13 1014.04 1014.00 1014.02 1014.12 1014.28 1014.45 1014.60 1014.69 1014.72 1014.69 1014.63 1014.58 1014.55 1014.58 1014.67 1014.78 1014.89 1014.98 1015.02
1009.51 1010.33 1010.86 1011.14 1011.20 1011.14 1011.05 1011.04 1011.17 1011.46 1011.90 1012.42 1012.96 1013.43 1013.77 1013.94 1013.96 1013.86 1013.71 1013.58 1013.52 1013.56 1013.70 1013.91 1014.13 1014.31 1014.43 1014.45 1014.40 1014.32 1014.24 1014.20 1014.24 1014.34 1014.49 1014.65 1014.79 1014.88 1014.89 1014.86 1014.79 1014.73 1014.69 1014.71 1014.76 1014.84 1014.91 1014.96 1014.95
1009.35 1010.03 1010.43 1010.61 1010.63 1010.59 1010.58 1010.68 1010.94 1011.36 1011.92 1012.53 1013.11 1013.60 1013.93 1014.09 1014.09 1013.99 1013.85 1013.73 1013.69 1013.74 1013.89 1014.09 1014.29 1014.46 1014.55 1014.57 1014.52 1014.44 1014.38 1014.35 1014.40 1014.51 1014.65 1014.81 1014.94 1015.02 1015.03 1014.99 1014.92 1014.85 1014.81 1014.80 1014.83 1014.87 1014.90 1014.90 1014.86
1009.27 1009.83 1010.14 1010.26 1010.26 1010.23 1010.27 1010.44 1010.77 1011.26 1011.85 1012.47 1013.06 1013.53 1013.86 1014.03 1014.05 1013.99 1013.89 1013.82 1013.81 1013.89 1014.03 1014.22 1014.40 1014.54 1014.61 1014.62 1014.57 1014.50 1014.44 1014.43 1014.48 1014.59 1014.73 1014.87 1014.99 1015.06 1015.08 1015.05 1014.98 1014.92 1014.87 1014.85 1014.86 1014.86 1014.86 1014.82 1014.74
1009.32 1009.80 1010.04 1010.11 1010.11 1010.10 1010.17 1010.36 1010.70 1011.18 1011.73 1012.31 1012.85 1013.29 1013.60 1013.79 1013.86 1013.87 1013.85 1013.85 1013.90 1014.00 1014.15 1014.32 1014.47 1014.58 1014.62 1014.61 1014.56 1014.49 1014.44 1014.43 1014.47 1014.57 1014.69 1014.82 1014.93 1014.99 1015.01 1015.00 1014.95 1014.90 1014.86 1014.84 1014.83 1014.82 1014.78 1014.71 1014.60
1009.52 1009.92 1010.12 1010.18 1010.17 1010.18 1010.27 1010.46 1010.76 1011.17 1011.63 1012.11 1012.56 1012.94 1013.24 1013.45 1013.58 1013.67 1013.75 1013.84 1013.95 1014.09 1014.24 1014.39 1014.51 1014.58 1014.60 1014.57 1014.51 1014.44 1014.38 1014.36 1014.39 1014.45 1014.54 1014.64 1014.73 1014.79 1014.82 1014.83 1014.81 1014.79 1014.78 1014.77 1014.76 1014.74 1014.69 1014.60 1014.47
1009.83 1010.15 1010.31 1010.37 1010.40 1010.44 1010.53 1010.71 1010.95 1011.26 1011.60 1011.95 1012.29 1012.59 1012.86 1013.09 1013.28 1013.46 1013.63 1013.80 1013.97 1014.14 1014.30 1014.43 1014.52 1014.56 1014.56 1014.51 1014.45 1014.37 1014.31 1014.26 1014.26 1014.28 1014.33 1014.39 1014.45 1014.50 1014.54 1014.57 1014.59 1014.61 1014.63 1014.64 1014.65 1014.63 1014.58 1014.49 1014.35
1010.15 1010.39 1010.53 1010.61 1010.68 1010.78 1010.91 1011.07 1011.26 1011.47 1011.68 1011.89 1012.10 1012.32 1012.54 1012.77 1013.01 1013.26 1013.50 1013.74 1013.96 1014.16 1014.31 1014.42 1014.49 1014.51 1014.50 1014.45 1014.39 1014.32 1014.24 1014.18 1014.14 1014.11 1014.10 1014.11 1014.13 1014.17 1014.22 1014.28 1014.34 1014.40 1014.46 1014.51 1014.54 1014.53 1014.49 1014.40 1014.26
1010.35 1010.52 1010.65 1010.78 1010.94 1011.13 1011.32 1011.50 1011.66 1011.78 1011.87 1011.94 1012.02 1012.13 1012.30 1012.51 1012.78 1013.07 1013.37 1013.66 1013.91 1014.11 1014.26 1014.35 1014.41 1014.42 1014.42 1014.39 1014.35 1014.29 1014.22 1014.14 1014.06 1013.98 1013.92 1013.88 1013.86 1013.89 1013.94 1014.02 1014.12 1014.22 1014.32 1014.40 1014.46 1014.47 1014.44 1014.37 1014.24
1010.32 1010.44 1010.60 1010.82 1011.10 1011.42 1011.71 1011.94 1012.09 1012.14 1012.11 1012.06 1012.01 1012.02 1012.11 1012.29 1012.56 1012.87 1013.21 1013.52 1013.78 1013.99 1014.13 1014.21 1014.26 1014.29 1014.31 1014.32 1014.31 1014.29 1014.24 1014.15 1014.05 1013.93 1013.82 1013.74 1013.69 1013.70 1013.76 1013.86 1013.98 1014.12 1014.26 1014.36 1014.44 1014.47 1014.46 1014.40 1014.30
1009.99 1010.10 1010.33 1010.69 1011.14 1011.62 1012.05 1012.35 1012.51 1012.50 1012.37 1012.18 1012.01 1011.90 1011.91 1012.06 1012.31 1012.63 1012.98 1013.31 1013.58 1013.78 1013.92 1014.00 1014.06 1014.11 1014.17 1014.22 1014.28 1014.30 1014.28 1014.22 1014.11 1013.98 1013.84 1013.72 1013.66 1013.65 1013.71 1013.83 1013.98 1014.14 1014.30 1014.42 1014.51 1014.55 1014.56 1014.52 1014.44
1009.36 1009.52 1009.88 1010.43 1011.09 1011.76 1012.33 1012.71 1012.87 1012.80 1012.57 1012.25 1011.94 1011.72 1011.65 1011.74 1011.98 1012.30 1012.67 1013.01 1013.29 1013.50 1013.63 1013.73 1013.80 1013.88 1013.99 1014.10 1014.22 1014.30 1014.34 1014.31 1014.22 1014.09 1013.95 1013.82 1013.75 1013.75 1013.82 1013.94 1014.11 1014.29 1014.45 1014.58 1014.68 1014.73 1014.74 1014.72 1014.67
1008.54 1008.81 1009.37 1010.14 1011.03 1011.89 1012.60 1013.04 1013.19 1013.03 1012.67 1012.20 1011.75 1011.42 1011.26 1011.31 1011.53 1011.87 1012.26 1012.63 1012.93 1013.15 1013.30 1013.41 1013.51 1013.63 1013.78 1013.95 1014.13 1014.28 1014.37 1014.39 1014.34 1014.24 1014.12 1014.02 1013.96 1013.97 1014.05 1014.19 1014.37 1014.55 1014.72 1014.84 1014.93 1014.97 1014.99 1014.98 1014.96
1007.66 1008.13 1008.92 1009.95 1011.06 1012.10 1012.90 1013.37 1013.45 1013.18 1012.66 1012.03 1011.43 1010.98 1010.74 1010.75 1010.98 1011.35 1011.78 1012.19 1012.54 1012.79 1012.97 1013.10 1013.23 1013.37 1013.56 1013.78 1014.01 1014.21 1014.36 1014.44 1014.44 1014.39 1014.31 1014.25 1014.22 1014.26 1014.37 1014.53 1014.71 1014.90 1015.05 1015.16 1015.23 1015.26 1015.28 1015.29 1015.29
1006.93 1007.63 1008.68 1009.96 1011.27 1012.44 1013.29 1013.72 1013.69 1013.26 1012.56 1011.75 1010.99 1010.43 1010.13 1010.12 1010.36 1010.78 1011.27 1011.74 1012.15 1012.46 1012.67 1012.83 1012.98 1013.14 1013.35 1013.60 1013.86 1014.11 1014.31 1014.44 1014.50 1014.51 1014.49 1014.48 1014.50 1014.58 1014.72 1014.90 1015.10 1015.27 1015.41 1015.50 1015.55 1015.57 1015.57 1015.58 1015.61
1006.47 1007.43 1008.74 1010.23 1011.69 1012.92 1013.75 1014.08 1013.90 1013.28 1012.38 1011.39 1010.50 1009.83 1009.48 1009.47 1009.75 1010.22 1010.79 1011.34 1011.82 1012.18 1012.44 1012.63 1012.79 1012.97 1013.18 1013.44 1013.72 1014.00 1014.24 1014.41 1014.53 1014.59 1014.63 1014.68 1014.76 1014.89 1015.07 1015.27 1015.47 1015.64 1015.76 1015.83 1015.86 1015.85 1015.84 1015.85 1015.89
1006.38 1007.58 1009.09 1010.72 1012.26 1013.48 1014.22 1014.41 1014.04 1013.23 1012.15 1011.00 1009.99 1009.26 1008.89 1008.90 1009.22 1009.77 1010.41 1011.03 1011.58 1011.99 1012.29 1012.50 1012.68 1012.86 1013.08 1013.34 1013.62 1013.91 1014.17 1014.38 1014.54 1014.66 1014.75 1014.86 1014.99 1015.17 1015.37 1015.59 1015.80 1015.97 1016.08 1016.13 1016.13 1016.10 1016.07 1016.07 1016.12
1006.64 1008.02 1009.65 1011.34 1012.86 1014.00 1014.60 1014.61 1014.07 1013.08 1011.86 1010.61 1009.54 1008.78 1008.42 1008.47 1008.85 1009.45 1010.15 1010.84 1011.43 1011.89 1012.22 1012.46 1012.65 1012.83 1013.05 1013.31 1013.59 1013.88 1014.15 1014.38 1014.57 1014.73 1014.87 1015.02 1015.19 1015.40 1015.64 1015.87 1016.08 1016.25 1016.34 1016.38 1016.36 1016.31 1016.26 1016.26 1016.29
1007.16 1008.62 1010.28 1011.93 1013.34 1014.32 1014.75 1014.59 1013.90 1012.80 1011.50 1010.23 1009.16 1008.44 1008.14 1008.23 1008.66 1009.31 1010.05 1010.77 1011.39 1011.87 1012.22 1012.47 1012.68 1012.88 1013.11 1013.37 1013.66 1013.95 1014.23 1014.47 1014.67 1014.85 1015.01 1015.18 1015.38 1015.61 1015.86 1016.10 1016.31 1016.47 1016.57 1016.59 1016.56 1016.49 1016.44 1016.41 1016.43
1007.80 1009.24 1010.80 1012.30 1013.52 1014.30 1014.55 1014.24 1013.46 1012.32 1011.05 1009.84 1008.87 1008.25 1008.04 1008.20 1008.68 1009.35 1010.09 1010.80 1011.42 1011.90 1012.26 1012.53 1012.76 1012.99 1013.25 1013.53 1013.83 1014.14 1014.42 1014.66 1014.86 1015.03 1015.20 1015.37 1015.57 1015.79 1016.04 1016.28 1016.50 1016.66 1016.75 1016.77 1016.74 1016.67 1016.60 1016.57 1016.58
1008.41 1009.70 1011.07 1012.32 1013.29 1013.85 1013.92 1013.51 1012.70 1011.63 1010.49 1009.45 1008.66 1008.20 1008.11 1008.36 1008.87 1009.54 1010.25 1010.92 1011.49 1011.95 1012.31 1012.60 1012.87 1013.15 1013.45 1013.78 1014.12 1014.44 1014.73 1014.96 1015.15 1015.30 1015.43 1015.58 1015.75 1015.96 1016.19 1016.42 1016.63 1016.79 1016.89 1016.93 1016.90 1016.85 1016.78 1016.74 1016.74
1008.88 1009.94 1011.02 1011.96 1012.64 1012.97 1012.89 1012.43 1011.68 1010.76 1009.84 1009.05 1008.50 1008.25 1008.32 1008.65 1009.19 1009.82 1010.47 1011.07 1011.58 1012.00 1012.36 1012.68 1013.00 1013.34 1013.72 1014.11 1014.49 1014.84 1015.13 1015.35 1015.50 1015.61 1015.70 1015.80 1015.93 1016.10 1016.30 1016.51 1016.72 1016.89 1017.00 1017.05 1017.05 1017.02 1016.97 1016.93 1016.92
Thickness
5824 5821 5817 5804 5783 5766 5765 5781 5792 5793 5794 5801 5803 5796 5785 5777 5768 5759 5782 5791 5790 5788 5787 5787 5787 5787 5786 5786 5786 5786 5785 5785 5784 5783 5783 5783 5782 5782 5783 5783 5783 5782 5781 5779 5777 5776 5774 5772 5771
5827 5823 5811 5794 5769 5751 5766 5788 5791 5797 5802 5806 5803 5796 5786 5780 5786 5782 5785 5789 5789 5787 5786 5785 5785 5784 5784 5784 5784 5784 5783 5783 5783 5782 5782 5782 5781 5781 5782 5782 5782 5781 5780 5778 5776 5775 5774 5772 5771
5830 5825 5802 5783 5768 5761 5772 5792 5798 5806 5812 5809 5798 5795 5788 5782 5787 5785 5788 5790 5788 5785 5784 5783 5782 5782 5782 5782 5782 5782 5781 5781 5781 5781 5780 5780 5780 5781 5781 5781 5781 5780 5779 5777 5775 5775 5774 5772 5770
5828 5813 5798 5778 5772 5787 5794 5800 5808 5805 5806 5807 5798 5786 5789 5796 5793 5790 5790 5789 5786 5783 5782 5781 5781 5780 5780 5780 5780 5779 5779 5779 5779 5779 5779 5779 5779 5780 5780 5780 5779 5779 5777 5776 5775 5774 5773 5771 5769
5825 5803 5781 5771 5781 5799 5808 5813 5813 5805 5801 5800 5797 5780 5779 5794 5797 5793 5790 5787 5784 5782 5781 5779 5779 5778 5778 5778 5778 5778 5777 5777 5777 5777 5777 5777 5777 5778 5778 5778 5778 5777 5776 5775 5774 5773 5772 5771 5769
5811 5796 5771 5766 5785 5804 5813 5818 5814 5805 5800 5799 5794 5781 5777 5792 5792 5790 5789 5786 5784 5781 5779 5778 5777 5777 5777 5777 5776 5776 5776 5776 5776 5775 5775 5775 5775 5775 5776 5776 5776 5776 5775 5774 5773 5772 5771 5770 5768
5804 5788 5776 5780 5788 5799 5812 5821 5814 5805 5800 5801 5800 5780 5778 5786 5791 5791 5788 5785 5782 5780 5778 5777 5776 5776 5775 5775 5775 5775 5775 5775 5774 5774 5774 5774 5773 5773 5773 5774 5774 5774 5773 5773 5772 5772 5770 5769 5767
5819 5796 5784 5786 5790 5798 5819 5823 5821 5813 5806 5813 5807 5784 5776 5786 5793 5790 5786 5783 5780 5778 5777 5775 5775 5774 5774 5773 5773 5773 5774 5774 5773 5773 5772 5772 5771 5771 5771 5771 5771 5771 5771 5771 5770 5770 5769 5768 5765
5829 5792 5782 5794 5798 5805 5822 5819 5820 5825 5815 5811 5811 5801 5797 5797 5794 5786 5780 5777 5776 5775 5775 5774 5773 5773 5772 5772 5771 5771 5772 5773 5772 5771 5770 5769 5768 5768 5768 5769 5769 5769 5769 5769 5768 5768 5767 5765 5764
5820 5791 5801 5820 5822 5819 5825 5822 5819 5812 5804 5801 5801 5801 5801 5796 5791 5783 5777 5773 5772 5772 5773 5774 5773 5772 5771 5771 5770 5771 5770 5770 5769 5769 5768 5767 5766 5766 5766 5766 5767 5767 5767 5767 5767 5766 5765 5764 5763
5826 5813 5825 5833 5837 5833 5827 5824 5826 5808 5795 5799 5797 5796 5796 5792 5788 5783 5779 5777 5776 5775 5774 5773 5773 5772 5771 5770 5770 5769 5769 5768 5767 5767 5766 5765 5764 5764 5764 5764 5764 5765 5766 5766 5765 5764 5764 5763 5763
5832 5833 5839 5838 5842 5836 5829 5827 5820 5813 5808 5815 5813 5807 5799 5791 5786 5783 5780 5779 5778 5776 5775 5775 5774 5772 5771 5770 5769 5769 5768 5767 5767 5766 5765 5765 5763 5763 5763 5763 5763 5763 5765 5764 5763 5763 5762 5762 5761
5832 5835 5844 5845 5843 5840 5835 5826 5822 5816 5821 5819 5814 5807 5799 5793 5790 5787 5785 5782 5780 5777 5776 5776 5775 5774 5772 5771 5769 5768 5768 5768 5767 5766 5765 5765 5764 5763 5763 5763 5763 5763 5763 5762 5761 5761 5761 5761 5760
5838 5840 5841 5841 5838 5838 5830 5824 5821 5816 5822 5816 5810 5804 5800 5796 5792 5788 5785 5782 5781 5779 5778 5778 5776 5775 5773 5771 5770 5769 5768 5768 5767 5767 5766 5765 5764 5764 5763 5762 5762 5762 5762 5762 5761 5761 5760 5759 5759
5844 5832 5831 5835 5835 5832 5827 5810 5814 5821 5820 5812 5808 5805 5801 5798 5796 5791 5789 5786 5784 5782 5780 5779 5777 5776 5774 5772 5771 5770 5769 5769 5768 5767 5766 5765 5765 5764 5764 5762 5762 5762 5762 5761 5760 5760 5759 5758 5757
5831 5816 5805 5823 5831 5831 5815 5790 5813 5822 5817 5808 5807 5805 5801 5798 5798 5796 5794 5790 5787 5784 5781 5780 5780 5776 5775 5773 5772 5772 5770 5769 5769 5768 5767 5766 5766 5765 5764 5763 5762 5762 5762 5761 5760 5758 5757 5755 5754
5805 5793 5797 5812 5829 5827 5813 5798 5814 5821 5817 5809 5807 5805 5802 5798 5797 5797 5797 5793 5789 5786 5783 5780 5779 5776 5775 5774 5773 5772 5771 5770 5769 5768 5767 5766 5766 5766 5765 5763 5762 5762 5761 5760 5759 5757 5755 5753 5751
5789 5792 5798 5804 5822 5823 5810 5805 5814 5819 5817 5811 5808 5805 5802 5799 5798 5800 5798 5796 5792 5789 5785 5782 5780 5778 5776 5774 5773 5772 5771 5770 5770 5769 5768 5767 5766 5766 5765 5764 5762 5762 5760 5758 5757 5755 5754 5752 5751
5811 5802 5797 5811 5828 5818 5809 5806 5811 5816 5814 5810 5807 5805 5802 5802 5803 5802 5800 5797 5793 5789 5786 5783 5780 5778 5776 5773 5771 5769 5768 5768 5769 5770 5769 5768 5767 5766 5765 5764 5762 5761 5759 5758 5756 5754 5752 5750 5749
5814 5802 5801 5813 5827 5817 5804 5804 5812 5816 5815 5815 5811 5807 5805 5801 5800 5800 5799 5797 5793 5790 5787 5785 5782 5780 5778 5776 5774 5773 5771 5769 5770 5770 5769 5768 5767 5766 5765 5764 5762 5761 5759 5757 5755 5753 5750 5749 5749
5811 5804 5804 5804 5814 5813 5801 5790 5799 5811 5816 5815 5814 5811 5810 5807 5801 5799 5798 5796 5794 5791 5789 5788 5784 5782 5780 5778 5775 5773 5770 5768 5767 5767 5767 5768 5768 5767 5766 5764 5762 5761 5759 5757 5755 5754 5751 5746 5747
5801 5821 5818 5811 5794 5781 5789 5763 5785 5797 5802 5807 5808 5808 5808 5810 5807 5803 5800 5797 5795 5794 5793 5790 5787 5784 5782 5779 5775 5771 5768 5765 5766 5767 5768 5768 5767 5766 5765 5764 5762 5760 5759 5757 5756 5755 5752 5748 5744
5816 5829 5821 5812 5794 5779 5781 5764 5774 5792 5790 5800 5808 5810 5811 5812 5810 5806 5804 5801 5800 5798 5794 5791 5788 5785 5783 5780 5777 5773 5770 5768 5768 5768 5767 5766 5766 5766 5765 5763 5761 5760 5758 5757 5756 5754 5752 5749 5746
5830 5819 5808 5796 5779 5757 5772 5763 5765 5783 5794 5802 5809 5813 5814 5814 5812 5808 5807 5803 5800 5799 5795 5792 5788 5785 5783 5781 5778 5775 5771 5769 5767 5766 5764 5764 5764 5764 5764 5763 5761 5760 5758 5757 5755 5754 5751 5749 5747
5817 5786 5760 5753 5743 5749 5775 5769 5773 5801 5813 5814 5813 5815 5815 5814 5812 5808 5804 5802 5800 5798 5796 5792 5788 5784 5783 5781 5779 5777 5774 5772 5769 5767 5765 5763 5762 5762 5762 5762 5760 5759 5758 5756 5755 5753 5751 5749 5747
5807 5789 5756 5741 5737 5748 5768 5765 5785 5811 5819 5821 5819 5818 5815 5811 5810 5808 5807 5807 5804 5801 5797 5793 5789 5785 5784 5782 5780 5778 5776 5773 5771 5769 5767 5765 5763 5762 5762 5761 5759 5758 5757 5756 5754 5752 5750 5749 5747
5802 5790 5790 5762 5752 5743 5751 5768 5788 5810 5811 5813 5813 5812 5811 5811 5810 5807 5807 5805 5803 5801 5798 5794 5789 5786 5784 5783 5780 5778 5776 5774 5772 5770 5768 5766 5764 5763 5762 5760 5759 5757 5756 5754 5752 5750 5748 5747 5746
5814 5801 5776 5757 5738 5730 5744 5754 5763 5787 5796 5802 5805 5806 5807 5810 5809 5806 5805 5805 5804 5802 5800 5796 5792 5787 5785 5783 5780 5778 5776 5774 5772 5770 5767 5765 5764 5763 5761 5759 5757 5755 5754 5752 5750 5748 5747 5745 5743
5797 5790 5773 5756 5753 5733 5727 5745 5789 5791 5797 5798 5802 5805 5806 5807 5808 5806 5805 5805 5804 5801 5798 5793 5790 5787 5784 5782 5780 5777 5775 5773 5770 5768 5766 5765 5763 5761 5759 5757 5755 5753 5751 5749 5747 5746 5744 5742 5741
5801 5789 5773 5753 5745 5742 5735 5748 5799 5799 5802 5801 5801 5805 5807 5807 5806 5804 5802 5801 5799 5797 5794 5791 5788 5786 5784 5782 5778 5776 5773 5771 5768 5766 5765 5763 5761 5760 5758 5755 5753 5751 5749 5747 5745 5743 5741 5739 5737